When you browse on this site, cookies collect data to enhance your experience and personalize the content and advertising you see.
Visit our Privacy Policy to learn more. By continuing to use the site, you agree to this use of cookies and data.
  • In Lithuania
  • List of Countries
  • For 7 days
  • Water Temperature
  • Weather Map
  • Weather Widgets
  • user-avatar
    Login

    Hourly Weather Tirana

    Today, 25 May, Monday

    Time Temperature Precipitation Wind Pressure Humidity
    00:00 +18°C° 0 mm 1 mps 759 mmHg 77%
    01:00 +17°C° 0 mm 2 mps 759 mmHg 79%
    02:00 +16°C° 0 mm 2 mps 759 mmHg 79%
    03:00 +16°C° 0 mm 3 mps 759 mmHg 80%
    04:00 +16°C° 0 mm 3 mps 759 mmHg 80%
    05:00 +17°C° 0 mm 3 mps 759 mmHg 75%
    06:00 +18°C° 0 mm 3 mps 759 mmHg 70%
    07:00 +20°C° 0 mm 3 mps 759 mmHg 65%
    08:00 +21°C° 0 mm 4 mps 759 mmHg 60%
    09:00 +22°C° 0 mm 4 mps 758 mmHg 55%
    10:00 +25°C° 0 mm 5 mps 758 mmHg 50%
    11:00 +24°C° 0 mm 6 mps 758 mmHg 48%
    12:00 +24°C° 0 mm 7 mps 758 mmHg 46%
    13:00 +26°C° 0 mm 7 mps 757 mmHg 43%
    14:00 +24°C° 0 mm 8 mps 757 mmHg 45%
    15:00 +23°C° 0 mm 8 mps 757 mmHg 47%
    16:00 +22°C° 0 mm 9 mps 757 mmHg 48%
    17:00 +21°C° 0 mm 8 mps 757 mmHg 55%
    18:00 +18°C° 0 mm 8 mps 757 mmHg 61%
    19:00 +16°C° 0 mm 7 mps 757 mmHg 67%
    20:00 +16°C° 0 mm 6 mps 757 mmHg 69%
    21:00 +15°C° 0 mm 5 mps 757 mmHg 71%
    22:00 +14°C° 0 mm 4 mps 757 mmHg 73%
    23:00 +14°C° 0 mm 4 mps 757 mmHg 73%

    Tomorrow, 26 May, Tuesday

    Time Temperature Precipitation Wind Pressure Humidity
    00:00 +14°C° 0 mm 3 mps 757 mmHg 73%
    01:00 +14°C° 0 mm 3 mps 757 mmHg 73%
    02:00 +15°C° 0.1 mm 2 mps 757 mmHg 73%
    03:00 +14°C° 0.1 mm 2 mps 756 mmHg 73%
    04:00 +14°C° 0.1 mm 2 mps 756 mmHg 73%
    05:00 +16°C° 0 mm 2 mps 756 mmHg 69%
    06:00 +17°C° 0 mm 2 mps 756 mmHg 64%
    07:00 +18°C° 0 mm 2 mps 756 mmHg 60%
    08:00 +20°C° 0.1 mm 3 mps 756 mmHg 54%
    09:00 +21°C° 0.1 mm 4 mps 756 mmHg 49%
    10:00 +22°C° 0.1 mm 5 mps 756 mmHg 43%
    11:00 +22°C° 0.1 mm 6 mps 756 mmHg 45%
    12:00 +22°C° 0.1 mm 7 mps 756 mmHg 46%
    13:00 +22°C° 0.1 mm 8 mps 755 mmHg 47%
    14:00 +22°C° 0.1 mm 8 mps 755 mmHg 47%
    15:00 +22°C° 0.1 mm 8 mps 755 mmHg 47%
    16:00 +21°C° 0.1 mm 8 mps 755 mmHg 47%
    17:00 +20°C° 0.1 mm 7 mps 755 mmHg 54%
    18:00 +17°C° 0.1 mm 6 mps 755 mmHg 61%
    19:00 +16°C° 0.1 mm 5 mps 755 mmHg 67%
    20:00 +15°C° 0 mm 5 mps 755 mmHg 68%
    21:00 +15°C° 0 mm 5 mps 755 mmHg 68%
    22:00 +14°C° 0 mm 5 mps 756 mmHg 69%
    23:00 +13°C° 0 mm 5 mps 755 mmHg 69%

    Day after tomorrow, 27 May, Wednesday

    Time Temperature Precipitation Wind Pressure Humidity
    00:00 +13°C° 0 mm 5 mps 755 mmHg 70%
    01:00 +13°C° 0 mm 5 mps 755 mmHg 70%
    02:00 +12°C° 0 mm 4 mps 755 mmHg 70%
    03:00 +12°C° 0 mm 4 mps 755 mmHg 70%
    04:00 +12°C° 0 mm 4 mps 755 mmHg 70%
    05:00 +13°C° 0 mm 4 mps 755 mmHg 66%
    06:00 +15°C° 0 mm 4 mps 756 mmHg 62%
    07:00 +17°C° 0 mm 4 mps 756 mmHg 59%
    08:00 +19°C° 0 mm 4 mps 756 mmHg 53%
    09:00 +21°C° 0 mm 4 mps 756 mmHg 48%
    10:00 +22°C° 0 mm 4 mps 756 mmHg 42%
    11:00 +23°C° 0 mm 5 mps 756 mmHg 42%
    12:00 +23°C° 0 mm 5 mps 756 mmHg 41%
    13:00 +24°C° 0 mm 6 mps 756 mmHg 41%
    14:00 +24°C° 0 mm 6 mps 756 mmHg 43%
    15:00 +23°C° 0 mm 7 mps 756 mmHg 45%
    16:00 +23°C° 0 mm 7 mps 755 mmHg 47%
    17:00 +21°C° 0 mm 7 mps 756 mmHg 54%
    18:00 +20°C° 0 mm 6 mps 756 mmHg 62%
    19:00 +17°C° 0 mm 6 mps 756 mmHg 69%
    20:00 +16°C° 0 mm 5 mps 756 mmHg 69%
    21:00 +15°C° 0 mm 5 mps 757 mmHg 70%
    22:00 +15°C° 0 mm 4 mps 757 mmHg 70%
    23:00 +14°C° 0 mm 4 mps 757 mmHg 69%

    28 May, Thursday

    Time Temperature Precipitation Wind Pressure Humidity
    00:00 +14°C° 0 mm 3 mps 757 mmHg 69%
    01:00 +13°C° 0 mm 3 mps 756 mmHg 69%
    02:00 +13°C° 0 mm 3 mps 756 mmHg 68%
    03:00 +13°C° 0 mm 3 mps 756 mmHg 68%
    04:00 +13°C° 0 mm 3 mps 756 mmHg 67%
    05:00 +14°C° 0 mm 3 mps 756 mmHg 63%
    06:00 +17°C° 0 mm 3 mps 756 mmHg 59%
    07:00 +19°C° 0 mm 3 mps 756 mmHg 54%
    08:00 +21°C° 0 mm 4 mps 756 mmHg 50%
    09:00 +22°C° 0 mm 4 mps 756 mmHg 45%
    10:00 +25°C° 0 mm 4 mps 756 mmHg 41%
    11:00 +25°C° 0 mm 5 mps 756 mmHg 39%
    12:00 +26°C° 0 mm 6 mps 755 mmHg 38%
    13:00 +26°C° 0 mm 7 mps 755 mmHg 37%
    14:00 +24°C° 0 mm 7 mps 755 mmHg 42%
    15:00 +23°C° 0 mm 7 mps 754 mmHg 47%
    16:00 +22°C° 0 mm 7 mps 754 mmHg 53%
    17:00 +20°C° 0 mm 6 mps 754 mmHg 61%
    18:00 +19°C° 0 mm 5 mps 754 mmHg 69%
    19:00 +17°C° 0 mm 4 mps 755 mmHg 77%
    20:00 +17°C° 0.1 mm 3 mps 755 mmHg 79%
    21:00 +16°C° 0.1 mm 3 mps 755 mmHg 82%
    22:00 +16°C° 0.1 mm 2 mps 755 mmHg 84%
    23:00 +15°C° 0.1 mm 2 mps 755 mmHg 82%

    29 May, Friday

    Time Temperature Precipitation Wind Pressure Humidity
    00:00 +15°C° 0.1 mm 2 mps 755 mmHg 81%
    01:00 +15°C° 0.1 mm 2 mps 755 mmHg 79%
    02:00 +14°C° 0.1 mm 2 mps 755 mmHg 78%
    03:00 +14°C° 0.1 mm 2 mps 754 mmHg 78%
    04:00 +14°C° 0.1 mm 2 mps 754 mmHg 77%
    05:00 +16°C° 0 mm 2 mps 754 mmHg 71%
    06:00 +18°C° 0 mm 2 mps 754 mmHg 66%
    07:00 +19°C° 0 mm 2 mps 755 mmHg 60%
    08:00 +21°C° 0 mm 2 mps 755 mmHg 56%
    09:00 +23°C° 0 mm 2 mps 754 mmHg 52%
    10:00 +25°C° 0 mm 2 mps 754 mmHg 48%
    11:00 +25°C° 0 mm 2 mps 754 mmHg 47%
    12:00 +26°C° 0 mm 2 mps 754 mmHg 46%
    13:00 +26°C° 0 mm 3 mps 754 mmHg 45%
    14:00 +25°C° 0 mm 3 mps 753 mmHg 47%
    15:00 +25°C° 0 mm 3 mps 753 mmHg 49%
    16:00 +24°C° 0 mm 3 mps 753 mmHg 51%
    17:00 +21°C° 0 mm 3 mps 753 mmHg 58%
    18:00 +20°C° 0 mm 2 mps 753 mmHg 65%
    19:00 +18°C° 0 mm 2 mps 753 mmHg 72%
    20:00 +17°C° 0 mm 2 mps 754 mmHg 74%
    21:00 +18°C° 0 mm 1 mps 754 mmHg 76%
    22:00 +16°C° 0 mm 1 mps 754 mmHg 79%
    23:00 +16°C° 0 mm 1 mps 754 mmHg 80%

    30 May, Saturday

    Time Temperature Precipitation Wind Pressure Humidity
    00:00 +15°C° 0 mm 1 mps 754 mmHg 81%
    01:00 +15°C° 0 mm 2 mps 754 mmHg 82%
    02:00 +15°C° 0.1 mm 2 mps 754 mmHg 82%
    03:00 +15°C° 0.1 mm 2 mps 754 mmHg 82%
    04:00 +15°C° 0.1 mm 2 mps 754 mmHg 83%
    05:00 +16°C° 0 mm 2 mps 754 mmHg 76%
    06:00 +18°C° 0 mm 2 mps 754 mmHg 70%
    07:00 +20°C° 0 mm 2 mps 754 mmHg 63%
    08:00 +21°C° 0 mm 2 mps 754 mmHg 57%
    09:00 +23°C° 0 mm 2 mps 754 mmHg 52%
    10:00 +25°C° 0 mm 2 mps 754 mmHg 46%
    11:00 +25°C° 0 mm 3 mps 754 mmHg 48%
    12:00 +25°C° 0 mm 3 mps 754 mmHg 49%
    13:00 +25°C° 0 mm 4 mps 754 mmHg 51%
    14:00 +25°C° 0.1 mm 4 mps 754 mmHg 52%
    15:00 +24°C° 0.1 mm 3 mps 754 mmHg 53%
    16:00 +24°C° 0.1 mm 2 mps 753 mmHg 53%
    17:00 +21°C° 0 mm 2 mps 754 mmHg 62%
    18:00 +21°C° 0 mm 1 mps 754 mmHg 70%
    19:00 +19°C° 0 mm 1 mps 754 mmHg 78%
    20:00 +19°C° 0.1 mm 1 mps 754 mmHg 77%
    21:00 +18°C° 0.1 mm 2 mps 754 mmHg 77%
    22:00 +18°C° 0.1 mm 2 mps 755 mmHg 77%
    23:00 +18°C° 0.2 mm 2 mps 754 mmHg 76%
    Show more